Regional Weather Roundup
Issued by NWS Sioux Falls, SD

Home | Current Version | Previous Version | Text Only | Print | Product List | Glossary Off
Versions: 1 2 3 4 5 6 7 8 9 10 11 12 13 14 15 16 17 18 19 20 21 22 23 24 25 26 27 28 29 30 31 32 33 34 35 36 37 38 39 40 41 42 43 44 45 46 47 48 49 50

986
ASUS43 KFSD 060010
RWRFSD

WEATHER ROUNDUP FOR SE SOUTH DAKOTA/SW MINNESOTA/NW IOWA
NATIONAL WEATHER SERVICE SIOUX FALLS SD
600 PM CST FRI FEB 05 2016

NOTE: "FAIR" INDICATES FEW OR NO CLOUDS BELOW 12,000 FEET WITH NO
SIGNIFICANT WEATHER AND OR OBSTRUCTIONS TO VISIBILITY.


SDZ038>040-050-052>070-060100-
SOUTHEAST SOUTH DAKOTA

CITY           SKY/WX    TMP DP  RH WIND       PRES   REMARKS
BROOKINGS      MOCLDY    25  23  92 W3        30.16R
CHAMBERLAIN    CLEAR     32  29  88 NW7       30.21R WCI  26
6HR MIN TEMP:  32; 6HR MAX TEMP:  36;

HURON          CLEAR     31  29  92 W6        30.19R WCI  25
6HR MIN TEMP:  27; 6HR MAX TEMP:  34; 6HR PCP:  0.01;

MADISON        FAIR      25  25 100 NW10      30.16S WCI  15
MITCHELL       CLOUDY    33  30  88 N5        30.21R WCI  29
6HR MIN TEMP:  31; 6HR MAX TEMP:  34; 6HR PCP: TRACE;

SIOUX FALLS    CLOUDY    29  27  92 CALM      30.18R
6HR MIN TEMP:  26; 6HR MAX TEMP:  30; 6HR PCP: TRACE;

WINNER         FAIR      34  27  75 NW9       30.21S WCI  27
YANKTON        CLOUDY    32  28  86 NW9       30.20R WCI  24
$$

MNZ071-072-080-081-089-090-097-098-060100-
SOUTHWEST MINNESOTA

CITY           SKY/WX    TMP DP  RH WIND       PRES   REMARKS
FAIRMONT       CLOUDY    25  19  80 S18G24    30.18F WCI  11
JACKSON        CLOUDY    28  23  80 SW12      30.18R FOG     WCI  18
LUVERNE        CLOUDY    30  27  86 SW3       30.19R FOG
MARSHALL       CLOUDY    27  24  89 W8        30.17S WCI  19
6HR MIN TEMP:  25; 6HR MAX TEMP:  29; 6HR PCP: TRACE;

MONTEVIDEO     CLOUDY    27  19  74 CALM      30.19S
PIPESTONE        N/A     28  21  74 W3        30.15R
REDWOOD FALLS  MOCLDY    27  23  85 SW8       30.18R WCI  19
TRACY          CLOUDY    28  25  89 W6        30.17R WCI  22
WINDOM         LGT SNOW  27  25  93 S9        30.17R WCI  17
WORTHINGTON    CLOUDY    25  21  86 SW15      30.17R WCI  12
$$

IAZ001>003-012>014-020>022-031-032-NEZ013-014-SDZ071-060100-
NORTHWEST IOWA

CITY           SKY/WX    TMP DP  RH WIND       PRES   REMARKS
CHEROKEE       LGT SNOW  28  27  96 S6        30.21F WCI  21
DENISON        CLOUDY    28  27  93 S10       30.21S WCI  19
ESTHERVILLE    CLOUDY    23  21  92 S14       30.19F WCI  11
LE MARS        CLOUDY    28  28 100 S7        30.21S WCI  21
ORANGE CITY    LGT SNOW  27  27 100 S6        30.18F WCI  20
SHELDON        CLOUDY    27  27 100 S10       30.17S FOG     WCI  17
SIOUX CITY     CLOUDY    30  25  81 SE5       30.21F WCI  25
6HR MIN TEMP:  29; 6HR MAX TEMP:  31; 6HR PCP: TRACE;

SPENCER        CLOUDY    27  22  81 S10       30.20S WCI  17
6HR MIN TEMP:  23; 6HR MAX TEMP:  27; 6HR PCP: TRACE;

STORM LAKE     CLOUDY    27  27 100 SW15      30.20R WCI  15
$$

ABBREVIATIONS USED IN REMARKS
   TC - TEMPERATURE IN CELSIUS
  WCI - WIND CHILL INDEX
   HX - HEAT INDEX
  VSB - VISIBILITY





USA.gov is the U.S. government's official web portal to all federal, state and local government web resources and services.